Dados Meteorológicos "Online"
 
  Base de Dados  
 
Dinamização da Estação Meteorológica (na escola)
 
Dados relativos aos últimos 2 meses:
Data/HoraTemperaturaHumi. Rela.PressãoPrecipitaçãoVel.VentoDir.VentoVel.RajadaDir.RajadaRadiação SolarÍndice U.V.
(ºC)(%)(hPa)(mm)(km/h)(km/h)(W / m2)(0-11)
2019-01-17 15:00:0016,755,21015,705,2NW17,7N2700,8
2019-01-17 14:00:0016,357,31016,605,4NE12,9NW3141,0
2019-01-17 13:00:0015,861,71017,308,4NE19,2E4541,3
2019-01-17 12:00:0015,166,01018,3011,9NE22,0NE3801,1
2019-01-17 11:00:0013,681,41018,708,5NE21,3NE3580,6
2019-01-17 10:00:009,899,11019,003,4E13,0NE1940,2
2019-01-17 09:00:005,9100,01018,701,6N8,0NW330,0
2019-01-17 08:00:005,3100,01018,201,1W13,0SW10
2019-01-17 07:00:004,9100,01017,802,4NW6,5NW00
2019-01-17 06:00:005,099,81017,602,1N8,4N00
2019-01-17 05:00:005,299,51017,402,0NW5,6N00
2019-01-17 04:00:006,299,41017,501,7NW5,2W00
2019-01-17 03:00:006,499,21017,602,6N6,4NW00
2019-01-17 02:00:006,999,01017,603,6NW6,8NW00
2019-01-17 01:00:007,198,61017,802,5N10,3NW00
2019-01-17 00:00:007,898,21018,101,9E5,1E00
2019-01-16 23:00:007,997,51018,102,1NE5,3NE00
2019-01-16 22:00:008,796,91017,702,1N6,0NW00
2019-01-16 21:00:009,095,81017,402,9NW7,1W00
2019-01-16 20:00:0010,293,21017,003,2NW8,2NW00
2019-01-16 19:00:0011,790,31016,601,4NW5,0NW00
2019-01-16 18:00:0012,886,91016,402,9W8,7W60
2019-01-16 17:00:0013,982,51016,301,4W4,2W440,0
2019-01-16 16:00:0013,882,81016,601,2NE9,9N640,1
2019-01-16 15:00:0013,285,51016,601,7NE6,7N460,1
2019-01-16 14:00:0013,881,71016,902,3W9,0W430,1
2019-01-16 13:00:0014,976,01017,703,5S14,3S1550,7
2019-01-16 12:00:0014,077,81018,902,3NE6,3SE2601,0
2019-01-16 11:00:0011,585,41019,402,8E5,9E1130,3
2019-01-16 10:00:009,691,31019,302,5E8,3SE810,1
2019-01-16 09:00:007,496,81019,002,4E6,1E500
2019-01-16 08:00:006,597,41018,901,8E5,7NE20
2019-01-16 07:00:006,497,51018,603,1E12,6E00
2019-01-16 06:00:006,597,71018,702,6NE7,2NE-10
2019-01-16 05:00:006,197,51019,102,1E8,4E00
2019-01-16 04:00:006,097,51019,502,0E3,8E00
2019-01-16 03:00:005,897,21019,602,8E10,4E00
2019-01-16 02:00:005,496,41019,701,5E4,5N00
2019-01-16 01:00:005,794,61019,601,6NW6,9NW00
2019-01-16 00:00:006,792,61019,801,4SE3,2SE-10
2019-01-15 23:00:008,388,91019,702,5NE5,1NE00
2019-01-15 22:00:009,486,11019,302,5NE7,8NW00
2019-01-15 21:00:009,884,51018,804,4NW10,0NW00
2019-01-15 20:00:0010,183,61018,605,2NW12,8NW-10
2019-01-15 19:00:0010,978,41018,207,7W14,7W00
2019-01-15 18:00:0012,670,41017,808,4W14,8NW110
2019-01-15 17:00:0014,165,61017,508,1W22,2NW250,0
2019-01-15 16:00:0015,262,61017,107,6NW18,2NW450,3
2019-01-15 15:00:0016,957,81017,105,9NW16,8NW3080,9
2019-01-15 14:00:0016,859,31017,706,4W16,4NW3831,3
2019-01-15 13:00:0015,964,91018,604,4S16,6NW4461,5
2019-01-15 12:00:0013,873,61019,903,0SE7,8E4011,2
2019-01-15 11:00:0010,481,21020,601,6E4,5SE3230,7
2019-01-15 10:00:006,495,01021,201,6E4,6SE1920,2
2019-01-15 09:00:001,999,31021,302,0E5,5E600,0
2019-01-15 08:00:000,898,71021,101,0NE4,3E10
2019-01-15 07:00:000,998,51020,601,9E11,1E00
2019-01-15 06:00:001,098,01020,101,2SE2,9SE00
2019-01-15 05:00:001,497,81020,300,5NE9,6N00
2019-01-15 04:00:001,997,51020,500,7E1,9NE00,0
2019-01-15 03:00:002,297,01020,401,5NE4,5E00
2019-01-15 02:00:002,796,21020,501,6E7,7NE00
2019-01-15 01:00:003,394,91020,601,5E3,1E00
2019-01-15 00:00:004,293,41020,701,5NE4,1E00
2019-01-14 23:00:005,091,91020,800,7NE2,5N00
2019-01-14 22:00:005,889,51020,402,1N6,9NW00
2019-01-14 21:00:006,787,11020,003,4NW6,5NW00
2019-01-14 20:00:007,883,41019,903,1N6,4N00
2019-01-14 19:00:009,575,41019,303,0NW8,0W00
2019-01-14 18:00:0012,163,21018,705,3W12,2W50
2019-01-14 17:00:0013,962,41018,605,2W13,3W200,0
2019-01-14 16:00:0014,755,71018,607,5SW16,2S360,3
2019-01-14 15:00:0017,238,61018,907,3SW15,0SW3751,0
2019-01-14 14:00:0017,444,21019,805,7S12,9SW4551,4
2019-01-14 13:00:0016,649,11021,104,9SW11,0SW4611,5
2019-01-14 12:00:0015,253,11022,602,5SE7,3S4181,2
2019-01-14 11:00:0011,666,01023,801,1NE3,6NE3380,7
2019-01-14 10:00:007,587,31024,600,9NE3,4NE2090,2
2019-01-14 09:00:001,498,81024,901,3E4,1E640,0
2019-01-14 08:00:000,398,11024,802,9E4,7E10
2019-01-14 07:00:000,597,91024,701,5E5,1SE00
2019-01-14 06:00:000,797,61024,601,5E3,6SE00
2019-01-14 05:00:000,997,11024,701,8NE3,9NE00
2019-01-14 04:00:001,396,81025,101,1NE9,0N00
2019-01-14 03:00:001,796,01025,001,8E4,1NE00
2019-01-14 02:00:002,395,81025,101,5NE3,9N00
2019-01-14 01:00:002,795,31025,401,6NE2,7NE-10
2019-01-14 00:00:003,494,31025,802,1NE6,6E00
2019-01-13 23:00:004,092,21025,901,2E5,3E00
2019-01-13 22:00:005,089,11025,701,0N2,6N00
2019-01-13 21:00:006,084,71025,102,0N5,3NW-10
2019-01-13 20:00:007,376,01024,603,2NW6,4NW00
2019-01-13 19:00:008,678,81024,404,3W10,2W00
2019-01-13 18:00:0010,672,91024,004,1SW7,9SW50
2019-01-13 17:00:0012,863,81023,505,2SW10,6SW210,0
2019-01-13 16:00:0013,757,61023,007,6SW16,6S420,3
2019-01-13 15:00:0015,948,91023,207,5S14,7S3741,0
2019-01-13 14:00:0016,143,71023,907,5SW14,1S4521,4
2019-01-13 13:00:0015,938,81025,205,0S10,8SW4581,5
2019-01-13 12:00:0014,146,01026,401,8SE5,3S4181,2
2019-01-13 11:00:0010,661,71027,101,5E5,7E3380,7
2019-01-13 10:00:006,879,31027,602,5E6,2NE2030,2
2019-01-13 09:00:001,296,91027,502,7E5,7E600,0
2019-01-13 08:00:000,796,31027,201,5E4,1E20
2019-01-13 07:00:000,795,61027,002,9E5,4SE00
2019-01-13 06:00:000,994,71026,902,4E5,9E00
2019-01-13 05:00:001,294,31027,003,0E6,3NE00
2019-01-13 04:00:001,593,71027,202,8E5,9E00
2019-01-13 03:00:001,792,81027,001,7E3,6NE00
2019-01-13 02:00:002,191,31026,701,7E5,7E00
2019-01-13 01:00:002,889,61026,701,0NE2,9NE00
2019-01-13 00:00:003,787,11027,002,3NE6,2NE00
2019-01-12 23:00:004,486,31027,103,7E6,3E00,0
2019-01-12 22:00:005,188,51026,803,9E7,6NE00
2019-01-12 21:00:006,187,11026,502,9NE6,6NE-10
2019-01-12 20:00:007,684,11026,302,3E9,0NE00
2019-01-12 19:00:008,780,71025,602,6N6,0NW00
2019-01-12 18:00:0011,070,61024,901,9S10,3S50
2019-01-12 17:00:0012,861,91024,205,8S12,1SE230,0
2019-01-12 16:00:0013,758,41023,706,9S14,9S480,3
2019-01-12 15:00:0015,252,81023,507,8S15,5S3520,9
2019-01-12 14:00:0015,450,01023,907,2S15,8S4321,4
2019-01-12 13:00:0014,846,71024,704,5E9,7E4411,5
2019-01-12 12:00:0013,746,71025,907,5E16,2E4021,2
2019-01-12 11:00:0012,149,51026,507,3E15,9E3220,7
2019-01-12 10:00:009,256,21026,803,1E9,1E1880,2
2019-01-12 09:00:002,973,81026,502,8NE7,9NE510,0
2019-01-12 08:00:002,477,51026,103,5NE7,4NE10
2019-01-12 07:00:002,769,31025,804,9NE9,8NE00
2019-01-12 06:00:002,476,11025,703,9E14,0E00
2019-01-12 05:00:002,275,61026,004,2E9,7E00
2019-01-12 04:00:002,574,41026,202,9E5,8E00
2019-01-12 03:00:002,874,31026,003,1E5,8E00
2019-01-12 02:00:003,963,41025,802,5E6,0NE00
2019-01-12 01:00:005,257,21025,404,2E9,9E00
2019-01-12 00:00:006,751,91025,406,1E13,6NE00
2019-01-11 23:00:007,946,01025,006,4NE13,4NE00
2019-01-11 22:00:008,745,11024,707,0NE16,2NE00
2019-01-11 21:00:009,442,81024,207,6NE18,4NE00
2019-01-11 20:00:009,544,81023,805,2NE14,1NE00
2019-01-11 19:00:0010,845,11023,306,3NE13,6N00
2019-01-11 18:00:0011,260,41022,402,6W10,1N50
2019-01-11 17:00:0012,751,41021,503,9SW15,3S200,0
2019-01-11 16:00:0013,949,81020,706,0S13,5S440,3
2019-01-11 15:00:0016,039,91020,107,6S16,9S3511,0
2019-01-11 14:00:0016,329,41020,408,5S18,7E4421,5
2019-01-11 13:00:0016,124,61021,208,3E19,7E4541,6
2019-01-11 12:00:0014,432,31022,306,9E14,2SE4171,3
2019-01-11 11:00:0012,149,31022,904,8E12,9E3380,7
2019-01-11 10:00:009,169,71023,402,8NE6,3NE2110,2
2019-01-11 09:00:002,498,61022,902,2NE9,1NE650,0
2019-01-11 08:00:001,898,91022,003,5NE8,6NE10
2019-01-11 07:00:002,899,41021,404,4NE9,2NE00
2019-01-11 06:00:003,299,81021,006,0NE16,1NE00
2019-01-11 05:00:003,899,91020,703,8NE13,1NE00
2019-01-11 04:00:004,699,71020,804,3NE8,0E00
2019-01-11 03:00:005,499,71020,304,1E8,0E00
2019-01-11 02:00:005,699,41019,603,6E7,5E00
2019-01-11 01:00:005,899,11019,103,6E13,3E00
2019-01-11 00:00:006,098,51018,902,3E5,2E00
2019-01-10 23:00:006,497,81018,502,0E4,8E00
2019-01-10 22:00:007,497,11018,302,0E5,4SE00
2019-01-10 21:00:008,296,01017,801,9N5,8NW00
2019-01-10 20:00:009,394,21017,301,9NE6,4NE00
2019-01-10 19:00:0010,890,31016,603,0NE5,9E00
2019-01-10 18:00:0012,585,01015,905,5E13,5E60
2019-01-10 17:00:0013,682,01015,308,3SE14,5SE260,0
2019-01-10 16:00:0014,576,71014,6010,4S18,7S480,3
2019-01-10 15:00:0016,168,11014,109,7S17,9SE3290,9
2019-01-10 14:00:0016,763,11014,308,9S24,4SE4271,3
2019-01-10 13:00:0017,055,51015,006,9S13,8S4381,4
2019-01-10 12:00:0016,360,31016,205,6SE11,1SE4011,1
2019-01-10 11:00:0013,371,61017,202,5SE5,6SE3210,7
2019-01-10 10:00:009,287,81018,003,1E11,8E1950,2
2019-01-10 09:00:003,999,61017,803,7E10,3E520,0
2019-01-10 08:00:003,099,21017,302,0E5,1E20
2019-01-10 07:00:002,899,01016,802,8E5,2E-10
2019-01-10 06:00:002,998,71016,701,8E4,3E00
2019-01-10 05:00:003,098,41016,902,5N6,9NW00
2019-01-10 04:00:003,398,11017,402,1E6,7NE00
2019-01-10 03:00:003,597,81017,602,6E5,5E00
2019-01-10 02:00:003,797,21017,601,2E3,2SE00
2019-01-10 01:00:004,296,51017,602,0E5,4E00
2019-01-10 00:00:004,995,81017,701,2E3,6NE00
2019-01-09 23:00:005,494,81017,801,2E4,8NE00
2019-01-09 22:00:006,293,61017,801,2N3,8N00
2019-01-09 21:00:007,191,31017,901,1NE3,0N00
2019-01-09 20:00:008,487,81017,901,8NE5,6NE00
2019-01-09 19:00:009,584,31017,301,8NW7,4N00
2019-01-09 18:00:0011,575,11017,002,0SE4,9SW40
2019-01-09 17:00:0013,963,81016,904,1SW10,4S190,0
2019-01-09 16:00:0015,354,51016,806,5S16,6SW390,2
2019-01-09 15:00:0017,943,01016,906,6S16,2S3270,8
2019-01-09 14:00:0018,737,21017,903,4S10,3S4331,2
2019-01-09 13:00:0017,243,31018,803,6S7,6SE4451,3
2019-01-09 12:00:0015,460,01020,502,8SE9,1NE4061,1
2019-01-09 11:00:0011,090,41021,601,5NE4,0S3410,6
2019-01-09 10:00:008,299,61022,601,1N4,7N2230,1
2019-01-09 09:00:002,6100,01023,401,1E5,3E600,0
2019-01-09 08:00:001,6100,01023,202,6E5,5E20
2019-01-09 07:00:001,8100,01023,10,22,1E5,1NE00
2019-01-09 06:00:002,0100,01023,101,7NW5,1NW00
2019-01-09 05:00:002,4100,01023,302,8NW11,9NW00
2019-01-09 04:00:002,8100,01024,001,9N8,9W00
2019-01-09 03:00:003,0100,01024,301,8E4,2SE00
2019-01-09 02:00:003,399,91024,201,3N3,5N00
2019-01-09 01:00:004,299,61024,601,4E11,1E00
2019-01-09 00:00:004,899,51024,901,2NE3,1NE00
2019-01-08 23:00:005,899,21025,100,9NE3,4NW00
2019-01-08 22:00:006,998,81025,302,1N5,5NW00
2019-01-08 21:00:008,298,41025,302,3N5,6N00
2019-01-08 20:00:009,197,51024,90,21,8W8,2W00
2019-01-08 19:00:0010,195,51024,501,8W5,4W00
2019-01-08 18:00:0011,991,71024,103,1SW6,4W50
2019-01-08 17:00:0013,786,01024,005,2S19,6S220,0
2019-01-08 16:00:0014,880,91023,706,9S13,0S430,2
2019-01-08 15:00:0016,772,01023,507,7S15,8S3260,8
2019-01-08 14:00:0016,770,61024,207,9S14,4S4331,3
2019-01-08 13:00:0016,264,41025,00,25,1S19,0S4431,4
2019-01-08 12:00:0014,857,01026,303,5E8,3NE4111,2
2019-01-08 11:00:0010,480,41027,001,4E5,2NE3440,7
2019-01-08 10:00:006,998,81027,800,6NE2,9E2280,2
2019-01-08 09:00:001,7100,01027,901,9E5,4E620,0
2019-01-08 08:00:000,8100,01027,403,2E5,3E20
2019-01-08 07:00:001,0100,01027,003,6E8,2E00
2019-01-08 06:00:000,899,91026,903,0E7,1E00
2019-01-08 05:00:001,299,81027,101,8E4,2NE00
2019-01-08 04:00:001,799,71027,302,6NE5,5N00
2019-01-08 03:00:002,399,61026,902,2N4,9N00
2019-01-08 02:00:002,899,41026,601,2E9,2NW00
2019-01-08 01:00:003,699,11026,602,1N9,8NE00
2019-01-08 00:00:004,798,91026,401,7N5,5N00
2019-01-07 23:00:005,498,71026,603,4E8,0NE00
2019-01-07 22:00:005,797,81026,601,7E5,5S00
2019-01-07 21:00:006,997,11026,501,7E6,5E00
2019-01-07 20:00:007,995,61026,202,2E9,3E00
2019-01-07 19:00:009,292,71025,301,5NW3,6W00
2019-01-07 18:00:0011,186,31024,902,3SW11,4SW40
2019-01-07 17:00:0013,080,01024,405,3SW11,9SW190,0
2019-01-07 16:00:0014,074,71023,906,0S11,3S420,3
2019-01-07 15:00:0015,767,31023,606,7S12,3S3270,9
2019-01-07 14:00:0015,865,11024,306,8S12,0S4381,3
2019-01-07 13:00:0015,656,61025,005,7SE12,1SE4511,4
2019-01-07 12:00:0014,752,91026,203,6SE9,9E4211,2
2019-01-07 11:00:0012,264,81026,903,5E9,4E3440,7
2019-01-07 10:00:008,879,91027,602,3NE5,6NE2200,2
2019-01-07 09:00:001,598,21027,805,6N9,3N600,0
2019-01-07 08:00:000,498,21027,703,1NE6,8NE20
2019-01-07 07:00:000,698,21027,501,9N4,7N00
2019-01-07 06:00:000,698,31027,401,7N4,9N00
2019-01-07 05:00:000,898,21027,301,7N6,3NW00
2019-01-07 04:00:001,098,01027,601,8NE3,7N00
2019-01-07 03:00:001,797,91028,001,8NE5,2E00
2019-01-07 02:00:002,397,71027,801,2E4,2E00
2019-01-07 01:00:002,897,11027,401,5NW4,6N00
2019-01-07 00:00:003,696,41027,601,4E3,4SE00
2019-01-06 23:00:004,595,41027,600,8NE2,6E00,0
2019-01-06 22:00:005,693,71027,101,6NW5,1NW00
2019-01-06 21:00:007,091,11026,901,6N5,0N00
2019-01-06 20:00:008,488,91026,604,5NW8,6N00
2019-01-06 19:00:0010,082,61026,202,2NW7,0W00
2019-01-06 18:00:0012,571,21025,804,2W9,3NW40
2019-01-06 17:00:0014,349,51025,705,4SW11,7SW170,0
2019-01-06 16:00:0015,444,41025,307,3SW13,9W410,3
2019-01-06 15:00:0019,738,81024,907,3SW14,3SW3300,9
2019-01-06 14:00:0019,138,31025,606,4SW12,3SW4431,4
2019-01-06 13:00:0017,833,81026,303,5SE9,3SE4581,5
2019-01-06 12:00:0015,549,61027,501,8SE11,2N4201,3
2019-01-06 11:00:0011,469,31028,801,7SE8,4SE3400,7
2019-01-06 10:00:007,783,41029,901,4E3,9SE2220,2
2019-01-06 09:00:001,999,21030,101,1E9,1E600,0
2019-01-06 08:00:001,199,11029,801,3E3,3E20
2019-01-06 07:00:001,399,01029,601,8E4,1E00
2019-01-06 06:00:001,698,81029,202,7N5,6N00
2019-01-06 05:00:002,198,91029,303,9NW6,1N00
2019-01-06 04:00:002,498,81029,603,7NW7,0NW00
2019-01-06 03:00:002,698,41030,102,8E9,4SE00
2019-01-06 02:00:003,198,11030,002,3E3,5E00
2019-01-06 01:00:003,497,51029,802,7E4,8NE00
2019-01-06 00:00:004,296,91029,901,8E3,5NE00
2019-01-05 23:00:004,996,11030,300,9NE3,9N00
2019-01-05 22:00:005,995,11030,201,4N3,7N00
2019-01-05 21:00:006,893,91030,000,9N2,7N00
2019-01-05 20:00:007,791,91029,501,2N4,5N00
2019-01-05 19:00:009,087,51028,901,8NW5,0NW00
2019-01-05 18:00:0011,379,41028,501,3SE5,8S40
2019-01-05 17:00:0013,069,11028,305,0S9,3SE190,0
2019-01-05 16:00:0014,261,61027,606,1S12,0S430,2
2019-01-05 15:00:0016,554,31027,006,6S13,9SW3190,8
2019-01-05 14:00:0016,358,01027,505,3SW13,0S4261,2
2019-01-05 13:00:0015,761,01028,204,2S9,3S4371,4
2019-01-05 12:00:0015,064,91029,404,7SE9,5E4021,1
2019-01-05 11:00:0011,884,21030,402,5E8,7E3300,6
2019-01-05 10:00:008,198,41031,002,1E5,6SE2170,2
2019-01-05 09:00:004,4100,01030,903,0E5,7E580,0
2019-01-05 08:00:003,6100,01030,603,2E8,0E20
2019-01-05 07:00:003,799,81030,102,5E4,9SE00
2019-01-05 06:00:004,599,91029,603,5E7,6E00
2019-01-05 05:00:004,799,71029,603,2E7,0E00
2019-01-05 04:00:004,599,31029,903,4E6,3E00
2019-01-05 03:00:004,899,01029,802,3E4,2NE00
2019-01-05 02:00:005,298,71029,402,6E10,3E00
2019-01-05 01:00:005,698,21029,202,0NE4,6E00
2019-01-05 00:00:006,097,61029,001,8E4,9E00
2019-01-04 23:00:006,897,11028,901,6NE4,7NE00
2019-01-04 22:00:007,796,61028,602,1N6,0N00
2019-01-04 21:00:008,495,51028,102,1N9,3N00
2019-01-04 20:00:009,393,31027,601,9NE5,3E00,0
2019-01-04 19:00:0010,888,61026,802,6NE4,8NE00
2019-01-04 18:00:0012,881,61026,104,7E13,3S40
2019-01-04 17:00:0014,474,91025,6012,2SE23,2SE280,0
2019-01-04 16:00:0015,362,01024,9012,6SE23,3S490,2
2019-01-04 15:00:0016,859,11024,0011,2S22,2S3150,8
2018-12-18 16:00:0016,385,71018,507,8S18,8SW610,1
2018-12-18 15:00:0016,683,31018,507,2SW16,4SW880,2
2018-12-18 14:00:0017,081,61018,806,9SW15,7SW1750,7
2018-12-18 13:00:0016,983,21019,606,3SW14,1SW2000,8
2018-12-18 12:00:0015,092,11020,902,8SE6,8S2490,9
2018-12-18 11:00:0011,699,61022,201,9NE11,9NE2170,6
2018-12-18 10:00:009,5100,01022,60,21,3NE3,4NE1050,1
2018-12-18 09:00:007,0100,01022,501,4E6,4SE460,0
2018-12-18 08:00:006,0100,01022,201,5NE4,4N60
2018-12-18 07:00:005,6100,01021,702,7NE12,9E00
2018-12-18 06:00:005,499,91022,003,5E7,6E00
2018-12-18 05:00:005,199,71022,701,9NE5,0N00
2018-12-18 04:00:005,399,71022,902,2E4,5E00
2018-12-18 03:00:005,699,31023,502,8E10,2E00
2018-12-18 01:00:006,298,91024,303,1E6,9E00
2018-12-18 00:00:006,498,51024,803,0E6,7E00
2018-12-17 23:00:006,597,81025,302,4E7,7E00
2018-12-17 22:00:007,097,11025,502,5NE5,1NW00
2018-12-17 21:00:008,096,91025,203,7NE7,4NE00
2018-12-17 20:00:008,895,41024,802,9NE9,6E00
2018-12-17 19:00:009,893,11024,503,2E8,3SE00
2018-12-17 18:00:0011,088,61024,203,4SE8,1E20
2018-12-17 17:00:0012,882,31023,606,4S12,5S160,0
2018-12-17 16:00:0013,679,51023,407,8S13,6SE330,2
2018-12-17 15:00:0015,075,51022,808,2S13,4S2560,7
2018-12-17 14:00:0015,871,01022,908,6S18,5S4031,2
2018-12-17 13:00:0014,875,71023,907,7S13,9S4201,3
2018-12-17 12:00:0013,289,11025,603,8SE10,2SE3581,1
2018-12-17 11:00:0010,299,51026,802,8E6,3E2220,6
2018-12-17 10:00:008,7100,01027,402,6E6,9SE1130,2
2018-12-17 09:00:006,3100,01027,502,1E5,5E410,0
2018-12-17 08:00:005,3100,01027,002,1E5,0E20
2018-12-17 07:00:005,5100,01026,701,5NE3,6E00
2018-12-17 06:00:005,7100,01026,501,8N3,8N00
2018-12-17 05:00:006,0100,01026,601,5NE3,5N00
2018-12-17 04:00:006,399,91026,602,4NE5,5NE00
2018-12-17 03:00:006,599,61026,702,1NE5,7E00
2018-12-17 02:00:007,099,31026,701,4N4,0SE00
2018-12-17 01:00:007,899,11026,802,5E5,7SE00
2018-12-17 00:00:008,298,61026,701,7N4,6NW00
2018-12-16 23:00:008,798,01026,702,6N7,0NW00
2018-12-16 22:00:009,196,51026,403,0W5,9NW00
2018-12-16 21:00:0010,194,81026,102,4NW5,5W00
2018-12-16 20:00:0011,092,91025,504,3N9,1NW00
2018-12-16 19:00:0012,289,51024,306,0NW13,9NW00
2018-12-16 18:00:0013,785,11023,606,7NW14,7NW30
2018-12-16 17:00:0015,277,31022,907,1NW14,8NW370,0
2018-12-16 16:00:0016,471,61022,109,3NW20,5N640,2
2018-12-16 15:00:0017,172,71020,9010,2NW21,4NW2470,8
2018-12-16 14:00:0016,087,11021,3012,0NW22,6NW3061,1
2018-12-16 13:00:0015,597,41022,208,5NW20,0N2741,1
2018-12-16 12:00:0015,098,51022,90,46,9NW21,0NW1520,6
2018-12-16 11:00:0015,397,91022,716,4W16,3NW810,2
2018-12-16 10:00:0015,297,41021,91,210,6SW26,6SW410,0
2018-12-16 08:00:0012,398,91022,005,2SW14,7SW20
2018-12-16 07:00:0011,598,51022,201,5NE4,7N00
2018-12-16 06:00:0011,298,71022,001,2E5,9SE00
2018-12-16 05:00:0011,198,91022,401,5E11,1E00
2018-12-16 04:00:0011,099,01022,800,9E2,9E00
2018-12-16 03:00:0010,798,91023,001,5NE4,5N00
2018-12-16 02:00:0010,298,71023,201,5E3,5SE00
2018-12-16 01:00:009,797,71023,600,9E10,1SE00
2018-12-16 00:00:0010,596,31024,101,2E3,4NW00
2018-12-15 23:00:0012,194,41024,402,0NE4,1NE00
2018-12-15 22:00:0013,192,71024,302,7S7,1S00
2018-12-15 21:00:0013,192,71024,504,1SW7,6S00
2018-12-15 20:00:0012,992,51024,702,6SW6,8S00
2018-12-15 19:00:0013,190,41024,501,3SW3,5S00
2018-12-15 18:00:0013,786,81024,401,9S10,2S20
2018-12-15 17:00:0014,781,71024,303,7SW8,0SW250,0
2018-12-15 16:00:0015,977,71024,005,0SW10,3SW850,2
2018-12-15 15:00:0016,475,01024,205,8SW17,4S1690,6
2018-12-15 14:00:0016,675,21024,904,8SW11,3SW1930,9
2018-12-15 13:00:0016,576,21025,505,9S15,2S2581,2
2018-12-15 12:00:0015,280,51026,302,4S6,5S2111,0
2018-12-15 11:00:0013,185,91026,901,8NE5,7E2980,9
2018-12-15 10:00:009,498,11027,402,2E6,9E1820,3
2018-12-15 09:00:006,8100,01027,603,0E7,0E640,0
2018-12-15 08:00:005,999,91027,402,2E5,3E30
2018-12-15 07:00:006,099,81026,603,4E6,7E00
2018-12-15 06:00:005,899,61026,403,2E6,5E00
2018-12-15 05:00:005,799,31026,401,8E4,0NE00
2018-12-15 04:00:006,199,21026,602,4E5,3NE00
2018-12-15 03:00:006,298,81026,601,7E3,3E00
2018-12-15 02:00:006,798,41026,401,9N9,1E00
2018-12-15 01:00:007,398,11026,702,0E3,5SE00
2018-12-15 00:00:007,997,61026,802,6E6,4E00
2018-12-14 23:00:008,596,71026,602,2NE4,9E00
2018-12-14 22:00:009,195,51026,302,8N8,8NW00
2018-12-14 21:00:009,694,21025,904,4NW9,7NW00
2018-12-14 20:00:0010,291,51025,403,1NW9,5NW00
2018-12-14 19:00:0011,287,21025,003,9NW9,7W00
2018-12-14 18:00:0012,679,21024,305,4NW11,4NW20
2018-12-14 17:00:0014,668,81023,507,5N17,0NW170,0
2018-12-14 16:00:0015,665,21023,209,5NW20,9NW550,2
2018-12-14 15:00:0016,959,71022,808,6NW21,2NW2490,8
2018-12-14 14:00:0016,959,81023,409,9NW23,8NW3001,3
2018-12-14 13:00:0016,264,81023,709,1NW18,9N2841,3
2018-12-14 12:00:0015,669,11025,004,8E14,5NW3771,4
2018-12-14 11:00:0012,782,41026,30,22,0NE10,3NE2430,8
2018-12-14 10:00:0010,588,71026,201,6E4,8NE1150,2
2018-12-14 09:00:008,296,11025,901,7E5,1N750,0
2018-12-14 08:00:007,797,41025,101,3N3,9N20
2018-12-14 07:00:007,196,91024,501,6E4,9E00
2018-12-14 06:00:007,796,11023,602,1E4,9E-10
2018-12-14 05:00:007,896,31023,502,0E7,0N00
2018-12-14 04:00:008,095,41023,401,6SW8,3W00
2018-12-14 03:00:008,195,11023,501,9SW5,0NW00
2018-12-14 02:00:007,796,11023,102,1S8,9SW00
2018-12-14 01:00:007,396,41023,002,8W7,9S00
2018-12-14 00:00:007,495,81023,103,6NW8,6NW00
2018-12-13 23:00:007,793,91022,403,7NW7,3NW00
2018-12-13 22:00:008,691,31021,704,2NW8,6NW00
2018-12-13 21:00:009,290,41021,404,8NW9,4NW00
2018-12-13 20:00:0010,186,31020,605,5NW15,8NW00
2018-12-13 19:00:0010,680,51019,705,5NW12,8NW00
2018-12-13 18:00:0012,372,01018,808,4NW24,4NW10
2018-12-13 17:00:0013,267,01018,1015,4NW33,7N210,0
2018-12-13 16:00:0013,868,21017,4016,1NW41,3N520,1
2018-12-13 15:00:0014,368,81016,5017,2NW39,6NW2730,6
2018-12-13 14:00:0015,167,71016,20,217,9NW42,2NW3360,9
2018-12-13 13:00:0015,260,91016,3021,7NW45,3N3411,1
2018-12-13 12:00:0015,263,71016,6021,2NW47,7N3231,0
2018-12-13 11:00:0015,368,61016,8014,3NW29,4N2160,5
2018-12-13 10:00:0013,776,91016,708,9NW24,1NW1780,2
2018-12-13 09:00:0011,493,21016,007,9NW20,4NW520,0
2018-12-13 08:00:0011,893,81014,9014,5NW31,9N20
2018-12-13 07:00:0012,597,71014,3014,8NW40,4NW00
2018-12-13 06:00:0012,799,71013,8013,1NW40,7NW00
2018-12-13 05:00:0014,099,31013,33,213,4W31,4SW00
2018-12-13 04:00:0015,399,11013,9313,6SW31,3SW00
2018-12-13 03:00:0015,597,41015,22,610,8SW23,4W00
2018-12-13 02:00:0015,596,61015,7011,2SW24,2SW00
2018-12-13 01:00:0015,396,21016,50,210,3SW22,2SW00
2018-12-13 00:00:0015,293,61017,409,6SW19,8SW00
2018-12-12 23:00:0015,092,11018,009,9SW23,7SW00
2018-12-12 22:00:0014,690,81017,908,7SW18,2SW00
2018-12-12 21:00:0013,391,61018,703,7SW12,5SW00
2018-12-12 20:00:0013,389,31019,202,9NW8,2NW00
2018-12-12 19:00:0013,887,71019,204,9W10,0W00
2018-12-12 18:00:0014,085,31018,905,9SW16,2W30
2018-12-12 17:00:0015,279,51018,508,4SW17,1SW430,0
2018-12-12 16:00:0016,174,31018,309,8SW17,9SW620,2
2018-12-12 15:00:0017,665,11018,106,7SW16,6SW2040,7
2018-12-12 14:00:0017,265,61018,902,3W8,3N2241,0
2018-12-12 13:00:0016,568,91020,005,4N15,5N3341,3
2018-12-12 12:00:0014,490,11021,205,3NW17,4N890,8
2018-12-12 11:00:0012,599,91022,401,0E3,0SW1560,5
2018-12-12 10:00:0011,5100,01022,700,6E5,0E700,1
2018-12-12 09:00:009,8100,01022,600,8NW3,8NW280,0
2018-12-12 08:00:008,4100,01022,501,4E3,3E20
2018-12-12 07:00:007,2100,01022,002,1NW5,9NW00
2018-12-12 06:00:007,5100,01021,801,1NE3,7NW00,0
2018-12-12 05:00:007,9100,01021,802,0NE4,7E00
2018-12-12 04:00:008,2100,01021,801,8N4,6NW00
2018-12-12 03:00:008,799,91021,701,0NE4,6N00
2018-12-12 02:00:009,299,61021,402,9NW11,8N00
2018-12-12 01:00:009,899,41021,501,9N6,5NE00
2018-12-12 00:00:0010,399,21021,703,5NW8,4NW00
2018-12-11 23:00:0010,798,71021,504,2NW10,4NW00
2018-12-11 22:00:0011,498,11021,403,9N7,7NE00
2018-12-11 21:00:0012,296,91021,003,7N7,2N00
2018-12-11 20:00:0012,895,61021,104,5NW10,5NW00
2018-12-11 19:00:0013,394,21020,507,2NW15,2NW00
2018-12-11 18:00:0014,390,61019,507,0NW14,6W20
2018-12-11 17:00:0016,581,21018,906,9NW15,7NW490,1
2018-12-11 15:00:0017,079,81018,807,6NW17,1W880,2
2018-12-11 14:00:0017,481,71018,907,8NW18,2W1070,4
2018-12-11 13:00:0017,583,51019,505,5W16,0NW1230,5
2018-12-11 12:00:0016,987,71020,203,3W10,8NW920,3
2018-12-11 11:00:0016,889,41020,604,4SW12,4SW800,2
2018-12-11 10:00:0015,894,81020,504,3SW13,9SW960,1
2018-12-11 09:00:0013,996,61020,102,1SW7,5SW390,0
2018-12-11 08:00:0013,496,81019,601,2NE3,9NW10
2018-12-11 07:00:0013,396,71019,302,1E4,5E00
2018-12-11 06:00:0013,396,61019,201,9NE4,2NW00
2018-12-11 05:00:0013,396,41019,301,4NE3,8NE00
2018-12-11 04:00:0013,096,31019,502,1E6,6E-10
2018-12-11 03:00:0012,696,31019,802,1E5,2E-10
2018-12-11 02:00:0012,295,11019,902,9E10,8NE00
2018-12-11 01:00:0012,893,11020,202,7E6,3E-10
2018-12-11 00:00:0013,092,71020,803,0E12,7E-10
2018-12-10 23:00:0013,294,61020,903,3E8,3E-10
2018-12-10 22:00:0013,194,21020,902,8E13,8E00
2018-12-10 21:00:0012,892,31021,002,3NE5,2NE00
2018-12-10 20:00:0013,687,51020,803,4E9,1E00
2018-12-10 19:00:0014,182,31020,504,9E11,6E00
2018-12-10 18:00:0016,070,61019,806,7SE13,9SE30
2018-12-10 17:00:0017,558,91019,609,0SE17,2SE340,0
2018-12-10 16:00:0018,553,81019,5010,8SE19,3SE550,2
2018-12-10 15:00:0020,744,31019,3012,9SE23,7SE2340,8
2018-12-10 14:00:0022,142,71019,7012,5SE24,2SE4061,4
2018-12-10 13:00:0021,842,41020,608,8SE22,9SE4251,6
2018-12-10 12:00:0020,452,61022,006,9E17,0E3551,3
2018-12-10 11:00:0017,565,21023,108,0E18,7E2570,8
2018-12-10 10:00:0012,486,11024,206,4NE13,4E1770,3
2018-12-10 09:00:008,398,41024,403,5E9,3E440,0
2018-12-10 08:00:007,198,51024,302,2E4,4E60
2018-12-10 07:00:007,198,01024,002,6E5,7NE00
2018-12-10 06:00:007,297,81023,802,2E6,2SE00
2018-12-10 05:00:007,297,81023,901,8E5,0SE00
2018-12-10 04:00:007,597,91024,301,6N3,4NW00
2018-12-10 03:00:007,797,51024,500,5NW3,3NW00
2018-12-10 02:00:008,096,61024,500,6E2,1E00
2018-12-10 01:00:008,795,91024,702,2N7,9N00
2018-12-10 00:00:009,395,81025,002,4E12,0NE00
2018-12-09 23:00:009,796,01025,003,2E6,8NE00
2018-12-09 22:00:0010,596,21025,102,8NE9,6E00
2018-12-09 20:00:0011,595,01025,003,7E7,7E00
2018-12-09 19:00:0012,592,81024,703,3NE7,5NE00
2018-12-09 18:00:0014,087,61024,302,2E5,3NE20
2018-12-09 17:00:0015,875,71023,803,3S7,9S210,0
2018-12-09 16:00:0017,068,41023,404,0SW9,0SW460,2
2018-12-09 15:00:0019,459,11023,006,0SW11,4SW2330,8
2018-12-09 14:00:0020,655,21023,606,0SW17,2SW3891,4
2018-12-09 13:00:0019,453,11024,405,1S12,7SW4131,6
2018-12-09 12:00:0019,252,41025,606,0E15,0SE4021,4
2018-12-09 11:00:0016,370,81026,402,8E9,7SE3330,9
2018-12-09 10:00:0011,194,31027,201,9E4,8NE1930,3
2018-12-09 09:00:008,299,21027,201,6E4,5E380,0
2018-12-09 08:00:007,098,71027,203,2E5,0E30
2018-12-09 07:00:007,598,31026,901,9E3,9E00
2018-12-09 06:00:007,797,71026,502,5E14,2E00
2018-12-09 05:00:008,296,81026,401,0E3,3E00
2018-12-09 04:00:008,894,91026,302,0NE4,6E00
2018-12-09 03:00:009,991,51026,103,8NE6,3NE00
2018-12-09 02:00:0011,784,91026,004,1NE8,2NE-10
2018-12-09 01:00:0013,179,61026,207,2NE17,8NE-10
2018-12-09 00:00:0013,080,61026,406,6NE18,5NE-10
2018-12-08 23:00:0013,181,91026,306,1E17,9NE00
2018-12-08 22:00:0011,790,21026,405,9NE14,7NE-10
2018-12-08 21:00:0011,492,31026,302,0SW6,4W00
2018-12-08 20:00:0012,092,71025,901,5SE6,3E00
2018-12-08 19:00:0012,889,71025,302,4NW6,0N00
2018-12-08 18:00:0014,683,51024,802,7W11,4W20
2018-12-08 17:00:0016,376,31024,204,6SW12,0W130,0
2018-12-08 16:00:0017,271,81024,103,0SW9,3SW290,2
2018-12-08 15:00:0019,362,21023,804,9SW11,0SW2400,8
2018-12-08 14:00:0019,858,91024,503,5NW10,1N4111,4
2018-12-08 13:00:0017,966,81025,404,9SW10,6W4371,5
2018-12-08 12:00:0017,862,71026,204,2E14,1E4101,4
2018-12-08 11:00:0016,369,61026,905,5NE13,1NE3400,9
2018-12-08 10:00:0013,090,61027,806,4NE14,2NE2090,3
2018-12-08 09:00:009,698,41027,602,1SE5,8SE380,0
2018-12-08 08:00:008,997,11026,901,2S4,1SE40
2018-12-08 07:00:0010,595,01026,502,4SE6,5SE00
2018-12-08 06:00:0012,491,31026,205,2NE14,0NE00
2018-12-08 05:00:0012,789,91026,306,3NE16,1NE-10
2018-12-08 04:00:0013,386,91026,707,1NE15,7NE00
2018-12-08 02:00:0013,585,81026,9010,5NE26,6N00
2018-12-08 01:00:009,796,71027,203,9NW17,9NE00
2018-12-08 00:00:009,495,91027,301,5W4,9W00
2018-12-07 23:00:0010,093,91027,302,1W6,2W00
2018-12-07 22:00:0011,590,21027,204,8N13,9N00
2018-12-07 21:00:0011,194,61027,405,6E15,9NE00
2018-12-07 20:00:0011,594,71026,703,4N7,3NW00
2018-12-07 19:00:0012,591,41026,103,5NW8,4W00
2018-12-07 18:00:0014,485,91025,304,4W10,3W10
2018-12-07 17:00:0017,076,91024,404,7W14,8NW130,0
2018-12-07 16:00:0018,066,61023,906,3SW13,9W300,2
2018-12-07 15:00:0021,555,41023,406,4SW13,6SW2370,8
2018-12-07 14:00:0022,349,91024,105,5S16,0SW4151,5
2018-12-07 13:00:0020,852,91025,005,0E11,8E4351,7
2018-12-07 12:00:0020,058,71025,603,6SE10,9SE4101,5
2018-12-07 11:00:0017,076,61026,104,2W11,3W3401,0
2018-12-07 10:00:0012,198,31026,502,0NW6,6W2070,3
2018-12-07 09:00:008,799,81026,401,8W7,3N370,0
2018-12-07 08:00:007,599,51026,100,8W5,2E40
2018-12-07 07:00:007,699,21025,600,8W4,5W00
2018-12-07 06:00:008,098,91025,201,3SE9,9W00
2018-12-07 05:00:008,398,51024,801,3NW8,0NW00
2018-12-07 04:00:008,797,91024,802,0NW7,1W00
2018-12-07 03:00:009,297,01024,801,0NW3,8NW00
2018-12-07 02:00:009,895,31024,601,2NW8,8NW00
2018-12-07 01:00:0011,091,51024,402,0NW7,7W00
2018-12-07 00:00:0013,884,61024,505,2N11,8NE00
2018-12-06 23:00:0015,479,01024,404,8NE12,0NE-10
2018-12-06 22:00:0016,277,01024,207,0NE14,8NE00
2018-12-06 21:00:0016,875,31024,208,4NE18,4NE-10
2018-12-06 20:00:0016,075,61024,206,1NE13,9NE00
2018-12-06 19:00:0016,571,01023,906,1NE14,2NE-10
2018-12-06 18:00:0016,571,71023,304,2NE8,7NE10
2018-12-06 17:00:0018,767,61022,401,7W6,7E120,0
2018-12-06 16:00:0021,156,71022,304,0E11,5E320,3
2018-12-06 15:00:0022,949,9102205,9NE13,7NE2340,9
2018-12-06 14:00:0022,848,21022,608,3E17,0E4181,5
2018-12-06 13:00:0021,949,21023,109,1NE20,0NE4431,8
2018-12-06 12:00:0021,355,91023,707,1E14,3E4181,6
2018-12-06 11:00:0019,166,61024,303,3E11,0E3461,0
2018-12-06 10:00:0014,686,21025,704,0NE9,1NE2230,3
2018-12-06 09:00:0010,099,91025,703,7NE11,8N380,0
2018-12-06 08:00:008,399,71025,305,1N12,5N40
2018-12-06 07:00:008,699,31024,903,8NE9,2N00
2018-12-06 06:00:009,599,31024,604,2E9,4NE00
2018-12-06 05:00:009,999,51024,706,4E16,2NE00
2018-12-06 04:00:0010,499,31025,006,2NE11,2NE00
2018-12-06 03:00:009,499,51025,207,4E14,3E00
2018-12-06 02:00:008,798,71025,002,4E6,4NE00
2018-12-06 01:00:009,098,31025,103,4NE8,9N00
2018-12-06 00:00:008,598,21025,103,9NE9,0NE00
2018-12-05 22:00:009,398,11024,503,4N8,3NW00
2018-12-05 21:00:0010,197,61024,103,8N12,1N00
2018-12-05 20:00:0011,296,61023,404,2N9,8N00
2018-12-05 19:00:0012,393,71022,901,7E3,9N00
2018-12-05 18:00:0014,285,71022,000,9NW4,3S20
2018-12-05 17:00:0016,375,11021,502,7SW5,8SW130,0
2018-12-05 16:00:0018,170,31021,004,6S10,8SW340,2
2018-12-05 15:00:0020,962,71020,405,5S10,4S2310,9
2018-12-05 14:00:0021,460,71020,503,8S8,9S4031,5
2018-12-05 13:00:0019,267,01021,201,8E8,0E4251,7
2018-12-05 12:00:0016,581,21022,201,9E8,0NE3711,5
2018-12-05 11:00:0012,499,31023,101,1NE4,5SE3110,9
2018-12-05 10:00:008,9100,01024,001,4NE4,3E2200,3
2018-12-05 09:00:006,7100,01023,801,2E4,6E300,0
2018-12-05 08:00:005,6100,01023,302,8E12,5E40
2018-12-05 07:00:006,3100,01022,502,6E8,8E00
2018-12-05 06:00:007,9100,01021,70,20,6N2,6N00
2018-12-05 05:00:008,6100,01021,501,6N4,5NE00
2018-12-05 04:00:008,6100,01021,601,4NE3,9NE00
2018-12-05 03:00:007,6100,01021,801,6NE5,7E00
2018-12-05 02:00:007,2100,01021,601,9E7,2E00
2018-12-05 01:00:007,599,81021,702,7E9,8NE00
2018-12-05 00:00:008,099,61021,501,7N4,6N00
2018-12-04 23:00:008,599,21021,201,2NE3,2N00,0
2018-12-04 22:00:009,298,71020,600,9NW3,5N00
2018-12-04 21:00:0010,198,21020,601,6E4,5E00
2018-12-04 20:00:0010,997,31020,101,7NE4,3N00
2018-12-04 19:00:0012,195,41019,601,1SE3,6N00
2018-12-04 18:00:0013,690,91018,901,4SW10,1NW20
2018-12-04 17:00:0015,481,11018,603,0S7,3S180,0
2018-12-04 16:00:0016,580,31018,206,5S11,1S340,3
2018-12-04 15:00:0017,972,71017,907,5S17,4S2300,9
2018-12-04 14:00:0018,670,11018,0011,2S18,8S4131,6
2018-12-04 13:00:0018,269,61018,1011,0S21,5S4381,8
2018-12-04 12:00:0018,170,51018,705,9SE15,2S4101,6
2018-12-04 11:00:0013,296,81019,802,2E6,6SE3541,0
2018-12-04 10:00:009,7100,01020,902,5E7,7E2510,3
2018-12-04 09:00:006,9100,01020,702,4E6,1E190,0
2018-12-04 07:00:006,2100,01020,303,3E6,0E00
2018-12-04 06:00:006,5100,01019,901,5E3,3E00
2018-12-04 05:00:006,9100,01019,601,8E4,2E00
2018-12-04 04:00:007,2100,01019,703,1E6,5SE-10
2018-12-04 03:00:007,3100,01020,001,8NE11,1NE00
2018-12-04 02:00:007,9100,01020,002,2E4,1E00
2018-12-04 01:00:008,399,91020,201,8E3,9E00
2018-12-04 00:00:008,799,61020,402,7E4,8E00
2018-12-03 23:00:009,399,41020,501,2E11,2SE00
2018-12-03 22:00:0010,099,01020,400,7E5,6SE00
2018-12-03 21:00:0010,898,51020,402,4E4,8E00
2018-12-03 20:00:0011,397,51020,102,9E5,7E00
2018-12-03 19:00:0012,295,71019,401,4SE3,7SE00
2018-12-03 18:00:0013,791,71018,701,5W6,3W20
2018-12-03 17:00:0015,683,31018,703,2SW7,4SW300,0
2018-12-03 16:00:0016,774,71018,504,5SW9,5S620,2
2018-12-03 15:00:0018,266,81018,404,9S14,8S1790,8
2018-12-03 14:00:0020,053,11018,603,0S8,1S2901,3
2018-12-03 13:00:0018,658,31019,302,4SE7,3S3771,7
2018-12-03 12:00:0017,664,91020,403,3E7,9SE4051,6
2018-12-03 11:00:0013,989,81021,402,8E7,7E3321,0
2018-12-03 10:00:0010,2100,01022,202,4E6,2E2250,3
2018-12-03 09:00:007,6100,01022,202,0E6,4NE510,0
2018-12-03 08:00:006,0100,01022,202,3NE7,2NE60
2018-12-03 07:00:006,1100,01021,902,3NE6,1N00
2018-12-03 06:00:006,2100,01022,101,3NW7,7N00
2018-12-03 05:00:006,7100,01022,301,4N4,6NW00
2018-12-03 04:00:007,099,91022,403,3NW6,3NW00
2018-12-03 03:00:006,799,61022,702,7N5,2NW00
2018-12-03 02:00:007,099,41022,801,6N5,8NW00
2018-12-03 01:00:007,399,11023,401,6NE3,8E00
2018-12-03 00:00:007,998,81023,601,6N3,3N00
2018-12-02 23:00:008,398,41023,502,1NW6,2N00
2018-12-02 22:00:008,997,81023,201,9NW5,5NW00
2018-12-02 21:00:009,697,01022,802,1NW4,5N00
2018-12-02 20:00:0010,595,81022,500,8N3,3NW00
2018-12-02 19:00:0012,190,21021,802,3NW10,2NW10
2018-12-02 17:00:0014,576,01021,004,1SW10,2SW140,0
2018-12-02 16:00:0015,864,01020,704,6SW9,8S330,2
2018-12-02 15:00:0017,560,31019,905,3S10,2S2290,8
2018-12-02 14:00:0018,457,21020,204,9SW9,2SW3541,3
2018-12-02 13:00:0017,657,21021,003,1S7,2S4031,6
2018-12-02 12:00:0016,163,01022,302,5SE5,5E3341,4
2018-12-02 11:00:0012,990,91023,301,7E4,2SE2890,9
2018-12-02 10:00:009,599,81024,201,4E5,2N2210,4
2018-12-02 09:00:007,4100,01024,000,8NE3,7NE540,0
2018-12-02 08:00:006,0100,01023,901,4NE3,8NE100
2018-12-02 07:00:006,199,91023,701,5N3,4N00
2018-12-02 06:00:006,499,71023,301,3N8,8NE00
2018-12-02 05:00:006,799,51023,401,8NE7,1E00
2018-12-02 04:00:007,099,21023,800,9NE3,4SE00
2018-12-02 03:00:007,699,01023,601,7N3,8NE00
2018-12-02 02:00:008,098,71023,501,7NE3,7NE00
2018-12-02 01:00:008,698,51024,001,4NE4,4NE00
2018-12-02 00:00:008,597,91024,001,4NE2,8N00
2018-12-01 23:00:008,996,91023,600,9NE4,8E00
2018-12-01 22:00:009,695,71023,601,1E3,9SE00
2018-12-01 21:00:0010,294,21023,302,6NE7,2NE00
2018-12-01 20:00:0010,992,81022,602,7NE5,5NE00
2018-12-01 19:00:0011,889,91021,802,1NE5,1NW00
2018-12-01 18:00:0013,082,71021,303,2SW6,6S20
2018-12-01 17:00:0014,674,91021,105,7SW13,2SW360,0
2018-12-01 16:00:0015,772,51020,907,6SW14,4SW840,2
2018-12-01 15:00:0017,164,91020,408,4SW16,6SW2320,8
2018-12-01 14:00:0018,756,21020,405,1SW17,7SW4021,4
2018-12-01 13:00:0017,256,01021,004,4SE10,7SE4241,6
2018-12-01 12:00:0016,960,51022,006,5NE12,5NE3431,3
2018-12-01 11:00:0015,171,91022,807,2NE18,4N3380,9
2018-12-01 10:00:0011,295,21024,304,8NE11,2NE2180,3
2018-12-01 09:00:008,499,91024,405,3NE11,0NE330,0
2018-12-01 08:00:006,699,61023,903,2E7,9E60
2018-12-01 07:00:006,999,51023,402,3E4,4SE00
2018-12-01 06:00:007,499,21022,504,4N12,9N00
2018-12-01 04:00:007,499,01022,603,1NE12,7N00
2018-12-01 03:00:007,698,61022,703,0NE7,2NE00
2018-12-01 02:00:008,098,21022,802,9NE6,6NE00
2018-12-01 01:00:008,397,51023,402,0NE7,7E00
2018-12-01 00:00:008,796,61024,002,9E5,7NE00
2018-11-30 23:00:009,395,61023,902,3E12,4E00
2018-11-30 22:00:009,894,21023,302,8N8,4N00
2018-11-30 21:00:0010,693,11022,603,4N7,0N00
2018-11-30 20:00:0011,389,91022,105,8N11,3N-10
2018-11-30 19:00:0012,786,31021,407,8NW18,0NW00
2018-11-30 18:00:0014,083,01020,507,6NW17,7NW30
2018-11-30 17:00:0015,276,51020,005,5SW11,3W370,0
2018-11-30 16:00:0016,468,31019,703,9SW16,4S780,2
2018-11-30 15:00:0017,065,31019,503,2SW12,2W1910,6
2018-11-30 14:00:0017,761,31019,303,6N12,3N3741,1
2018-11-30 13:00:0016,168,01019,805,4NE15,7N4451,5
2018-11-30 12:00:0014,977,71020,408,5NE21,8NE4221,3
2018-11-30 11:00:0012,895,91020,807,7NE16,4NE3520,8
2018-11-30 10:00:0010,999,91022,00,27,1NE15,5NE2100,3
2018-11-30 09:00:009,6100,01021,605,0NE13,7NE290,0
2018-11-30 08:00:009,0100,01020,804,4NE9,1NE60
2018-11-30 07:00:008,7100,01020,205,1NE10,0NE00
2018-11-30 06:00:008,8100,01019,705,4NE11,6N00
2018-11-30 05:00:008,8100,01019,206,4N16,6N00
2018-11-30 04:00:009,5100,01018,405,3N9,6N00
2018-11-30 03:00:0010,9100,01018,008,3N16,6N00
2018-11-30 02:00:0012,2100,01017,808,3N16,7NW00
2018-11-30 01:00:0013,0100,01017,705,6NW15,4NW00
2018-11-30 00:00:0014,0100,01017,205,2NW18,7NW00
2018-11-29 23:00:0015,599,81016,705,8NW14,0NW00
2018-11-29 22:00:0016,299,51016,50,811,8SW24,0SW00
2018-11-29 21:00:0016,298,31016,51,610,3SW23,5SW00
2018-11-29 20:00:0016,495,11016,40,210,8SW20,4SW00
2018-11-29 19:00:0016,393,81016,408,9SW17,6SW00
2018-11-29 18:00:0016,392,31016,608,3S17,3SW00
2018-11-29 17:00:0016,988,21016,707,8SW15,1SW260,0
2018-11-29 16:00:0017,185,71016,308,4S17,8SW820,1
2018-11-29 15:00:0017,184,31016,805,3SW18,8S700,2
2018-11-25 18:00:0016,299,91009,9115,1SW35,0W00
2018-11-25 17:00:0015,899,21010,11,611,1SW22,6SW100
2018-11-25 16:00:0015,796,51010,52,68,4SW18,9SW260,0
2018-11-25 15:00:0017,187,91010,40,69,8SW22,5W740,2
2018-11-25 14:00:0018,080,61010,709,7W26,1W1540,7
2018-11-25 13:00:0017,980,41010,7011,2W31,3W2161,0
2018-11-25 12:00:0016,794,41011,2010,7W30,6NW3311,3
2018-11-25 11:00:0015,799,81011,9010,7W26,2NW2290,8
2018-11-25 10:00:0015,5100,01012,006,8W18,3NW940,2
2018-11-25 09:00:0014,5100,01011,80,25,0SW12,0W400,0
2018-11-25 08:00:0013,7100,01011,404,9SW14,9SW110
2018-11-25 07:00:0013,9100,01010,604,5SW13,8W00
2018-11-25 06:00:0014,5100,01010,304,6SW9,8SW00
2018-11-25 05:00:0014,8100,01010,107,5W19,2SW00
2018-11-25 04:00:0015,0100,01010,106,6SW17,2W00
2018-11-25 03:00:0015,2100,01010,408,1SW20,4W00
2018-11-25 02:00:0015,1100,01010,408,3SW19,3SW00
2018-11-25 01:00:0015,2100,01010,806,5SW13,5SW00
2018-11-25 00:00:0014,6100,01011,205,8SW15,6SW00
2018-11-24 23:00:0014,599,71011,003,0W7,3W00
2018-11-24 22:00:0015,399,41011,005,1W16,2W00
2018-11-24 21:00:0015,598,11010,7114,6SW39,7SW00
2018-11-24 20:00:0016,492,61010,52,816,1SW31,3SW00
2018-11-24 19:00:0016,689,11010,7014,0S28,5S00
2018-11-24 18:00:0016,685,71010,9014,8SW42,4S00
2018-11-24 17:00:0016,685,41011,2012,0S27,1S180,0
2018-11-24 16:00:0016,983,41011,4013,3SW31,1S790,1
2018-11-24 15:00:0017,578,01011,4013,9S26,8S1190,4
2018-11-24 14:00:0018,376,91011,3013,7S30,6S3521,2
2018-11-24 13:00:0017,378,41012,6013,8S30,7SW2741,1
2018-11-24 12:00:0017,477,81013,1013,1SW28,6SW2971,2
2018-11-24 11:00:0015,487,51014,2011,5S24,3S2020,6
2018-11-24 10:00:0011,998,91015,403,0NE8,5NE1600,3
2018-11-24 09:00:009,999,61015,703,0NE6,6NE580,0
2018-11-24 08:00:008,299,51015,90,23,4E8,3E40
2018-11-24 07:00:008,099,21015,502,4E5,8E00
2018-11-24 06:00:007,999,11015,402,4E9,6E00
2018-11-24 05:00:007,998,81015,502,2E9,1NE00
2018-11-24 04:00:008,099,01015,902,9E7,1NE00
2018-11-24 03:00:008,098,71016,302,7E5,8E00
2018-11-24 02:00:007,798,61016,802,6E5,6E00
2018-11-24 01:00:007,898,11017,002,7E7,0E00
2018-11-24 00:00:008,397,81017,202,1E4,8E00
2018-11-23 23:00:008,297,21017,202,2E3,9E00
2018-11-23 22:00:008,595,61016,802,3E3,7E00
2018-11-23 21:00:009,292,81016,501,3NE3,8N00
2018-11-23 20:00:0010,189,81016,101,7NW6,8NW00
2018-11-23 19:00:0010,985,31015,40,43,4W10,8W00
2018-11-23 18:00:0012,577,41014,505,3NW10,1NW20
2018-11-23 17:00:0014,766,41013,807,4NW16,8NW150,0
2018-11-23 16:00:0015,961,31013,207,1W15,9NW310,2
2018-11-23 15:00:0017,761,91012,505,0W16,7SW2370,8
2018-11-23 14:00:0016,572,81013,007,5SW17,4SW1930,8
2018-11-23 13:00:0018,164,51012,206,6SW15,2SW5091,6
2018-11-23 12:00:0017,270,11012,906,4S11,2SE4541,5
2018-11-23 11:00:0013,592,71013,702,2SE6,4SE3711,0
2018-11-23 10:00:0010,4100,01015,901,6E3,9SE2020,4
2018-11-23 09:00:008,3100,01016,001,2E4,8E350,0
2018-11-23 08:00:007,2100,01015,302,1E5,0E80
2018-11-23 07:00:007,4100,01014,501,3NE3,5NE00
2018-11-23 06:00:007,9100,01014,001,5E2,9E00
2018-11-23 05:00:008,399,71013,501,9E3,7NE00
2018-11-23 04:00:008,899,51013,301,6NE9,1NE00
2018-11-23 03:00:009,199,01013,001,6N7,8NW00
2018-11-23 02:00:0010,098,51012,501,0N3,1N00
2018-11-23 01:00:0011,197,91012,501,6NE4,5N00
2018-11-23 00:00:0011,797,41012,203,2NE7,8E00
2018-11-22 23:00:0012,395,71012,103,6E9,2NE00
2018-11-22 22:00:0012,893,41011,703,9NE8,4E00
2018-11-22 21:00:0013,193,01011,605,7E11,3NE00
2018-11-22 20:00:0013,394,61011,305,2NE14,0E00
2018-11-22 19:00:0013,693,61011,005,2E12,2E00
2018-11-22 18:00:0013,888,51010,60,22,4E8,8NE10
2018-11-22 17:00:0014,684,01010,004,3SE7,6SE340,0
2018-11-22 16:00:0014,984,11010,005,8SW16,2SW740,1
2018-11-22 15:00:0015,186,31010,008,8S19,0S880,2
2018-11-22 14:00:0015,391,21010,50,22,7SE17,7SE670,2
2018-11-22 13:00:0015,092,61011,202,1E5,1E1050,4
2018-11-22 12:00:0014,293,71011,801,8E5,1E920,3
2018-11-22 11:00:0013,097,51012,402,9E6,5E1330,4
2018-11-22 10:00:0011,899,71012,701,8E5,2E730,1
2018-11-22 09:00:0010,9100,01012,601,6E4,4E330,0
2018-11-22 08:00:0010,399,91012,201,8E4,4NE80
2018-11-22 07:00:0010,399,81012,101,7E3,3E00
2018-11-22 06:00:0010,399,61012,202,4E4,2E-10
2018-11-22 05:00:0010,399,61012,202,1N5,8N00
2018-11-22 04:00:0010,199,51012,702,5E13,8SE00
2018-11-22 03:00:0010,199,21012,802,4NE11,3NE00
2018-11-22 02:00:0010,399,01013,002,2E9,1E00
2018-11-22 01:00:0010,598,71013,30,22,5N12,6S00
2018-11-22 00:00:0010,298,41013,602,2E4,1E00
2018-11-21 23:00:0010,398,41013,402,4E5,2E00
2018-11-21 22:00:0010,498,01013,401,5E4,8E00
2018-11-21 21:00:0010,697,11013,401,6E6,6E00
2018-11-21 20:00:0010,995,61012,901,1W3,4W00
2018-11-21 19:00:0011,493,51012,403,3SW8,1SW00
2018-11-21 18:00:0012,788,81011,504,1W14,7SW20
2018-11-21 17:00:0014,285,91010,904,1W14,0SW500,0
2018-11-21 16:00:0014,488,81010,605,5SW17,3NW790,2
2018-11-21 15:00:0014,589,61010,207,8SW18,3SW1570,5
2018-11-21 14:00:0017,869,81009,7210,1W27,4W3991,1
2018-11-21 13:00:0017,269,91009,90,29,1W22,6SW2101,0
2018-11-21 12:00:0018,366,11009,508,1W18,7W4091,5
2018-11-21 11:00:0016,482,51009,605,8SW13,9SW3941,1
2018-11-21 10:00:0012,499,51011,102,1NE10,3W2380,4
2018-11-21 09:00:0010,2100,01010,801,3NE4,2NE370,1
2018-11-21 08:00:009,399,91010,202,0E4,2N100
2018-11-21 07:00:009,799,61009,802,9NE11,4S00
2018-11-21 06:00:0010,299,41009,601,6NE4,1NE00
2018-11-21 05:00:0010,599,21009,501,7E3,7E00
2018-11-21 04:00:0010,698,81009,501,1E3,1E00,0
2018-11-21 03:00:0010,998,41009,400,4NE3,0W00
2018-11-21 02:00:0011,398,01009,302,0W7,1SW00
2018-11-21 01:00:0011,297,31009,403,3SW11,0SW00
2018-11-21 00:00:0011,696,21009,402,9W7,9SW00
2018-11-20 23:00:0012,394,11009,202,7W9,3W00
2018-11-20 22:00:0012,892,91009,005,0W12,5W00
2018-11-20 21:00:0012,992,71008,404,6W13,3W00
2018-11-20 20:00:0012,992,31007,904,1W11,9NW00
2018-11-20 19:00:0013,591,11007,206,8W18,8NW00
2018-11-20 18:00:0014,391,01006,307,9W22,0W40
2018-11-20 17:00:0016,081,11005,70,48,8W26,7W460,0
2018-11-20 16:00:0016,875,91005,2012,7NW33,5NW840,1
2018-11-20 15:00:0017,375,21004,9012,9W30,7NW2300,7
2018-11-20 14:00:0016,278,81005,3012,3W30,4NW1840,8
2018-11-20 13:00:0016,777,11005,10,29,6W27,4W1440,7
2018-11-20 12:00:0017,273,51004,7013,0W32,6W2681,1
2018-11-20 11:00:0014,894,51004,6010,7NW28,5W3260,8
2018-11-20 10:00:0013,2100,01005,308,2W22,3W2100,4
2018-11-20 09:00:0012,0100,01005,204,5W10,0W660,0
2018-11-20 08:00:0010,7100,01004,403,3W8,0W130
2018-11-20 07:00:0011,3100,01003,70,24,0W13,6N00
2018-11-20 06:00:0011,2100,01003,104,1NW12,5NW00
2018-11-20 05:00:0011,0100,01002,602,1W7,0NW00
2018-11-20 04:00:0011,2100,01002,006,3NW16,3NW00
2018-11-20 03:00:0012,3100,01001,2011,8NW26,6NW00
2018-11-20 02:00:0013,6100,01000,509,4NW26,3NW00
2018-11-20 01:00:0013,4100,01000,408,4W24,9W00
2018-11-20 00:00:0013,0100,01000,904,9W14,0W00
2018-11-19 23:00:0012,7100,01000,901,9W6,2NW00
2018-11-19 22:00:0013,899,91000,507,0W20,8W00
2018-11-19 21:00:0014,699,81000,76,610,6S23,2SW00
2018-11-19 20:00:0014,699,31001,04,49,6S22,2S00
2018-11-19 19:00:0014,498,71001,20,27,9S16,2S00
2018-11-19 18:00:0014,497,21001,21,26,4S18,4SW10
2018-11-19 17:00:0015,091,71001,314,5S9,3S120
2018-11-19 16:00:0016,977,81001,20,24,9SW17,3SW460,0
2018-11-19 15:00:0018,169,91000,708,6SW16,9SW1950,7
2018-11-19 14:00:0018,970,21000,409,3SW19,3S4511,6
2018-11-19 13:00:0017,578,01001,109,7SW17,8S4271,7
2018-11-19 12:00:0016,387,41001,007,3SW18,0S3681,5
2018-11-19 11:00:0014,698,91000,903,6SW14,8S3761,1
2018-11-19 10:00:0013,199,91002,201,5NW6,9NW1890,4
2018-11-19 09:00:0012,1100,01002,00,24,0N15,0NW730,0
2018-11-19 08:00:0011,4100,01001,804,4NW22,2NW60
2018-11-19 07:00:0010,9100,01001,706,1W14,0NW00
2018-11-19 06:00:0010,2100,01001,505,2NW11,7W00
2018-11-19 05:00:0010,3100,01001,103,3NW11,8NW00
2018-11-19 04:00:0010,5100,01000,905,0NW10,8W00
2018-11-19 03:00:0010,8100,01000,804,4NW9,4NW00
2018-11-19 02:00:0011,7100,01000,504,1NW14,3NW00
2018-11-19 01:00:0012,0100,01000,60,46,5NW17,5W00
2018-11-19 00:00:0011,8100,01000,604,1W10,1W00
2018-11-18 23:00:0012,0100,01000,504,6NW15,2W00
2018-11-18 22:00:0012,1100,01000,304,5W11,9NW00
2018-11-18 21:00:0011,999,6999,804,4NW10,0NW00
2018-11-18 20:00:0012,599,3999,60,27,6NW18,1NW00
2018-11-18 19:00:0012,899,3999,30,86,3W26,5NW00
2018-11-18 18:00:0013,098,7998,704,8NW11,2NW10
2018-11-18 17:00:0013,697,8998,10,47,0NW15,4NW140
2018-11-18 16:00:0013,997,9997,608,7NW22,6NW570,0
2018-11-18 15:00:0014,698,3997,007,9NW21,0NW1440,4
2018-11-18 14:00:0014,399,2997,60,45,4W17,3NW2110,6
2018-11-18 13:00:0014,598,8998,10,26,0W14,0W2440,8
2018-11-18 12:00:0014,799,4998,406,1SW12,3S1380,7
2018-11-18 11:00:0015,099,0998,415,6S12,6SW2460,6
2018-11-18 10:00:0014,399,9999,202,1SE9,9SW1830,4
2018-11-18 09:00:0013,0100,0999,303,4E8,2E460,1
2018-11-18 08:00:0012,9100,0999,003,4NE8,9NE50
2018-11-18 07:00:0013,2100,0998,603,3NE8,9NE00
2018-11-18 06:00:0013,499,9998,90,23,1NE6,1NE00
2018-11-18 05:00:0013,499,7998,90,23,7E10,5SE00
2018-11-18 04:00:0013,799,3999,20,87,3S21,4S00
2018-11-18 03:00:0014,198,5999,81,814,1S29,9S00
2018-11-18 02:00:0015,197,8999,80,416,7S34,1S00
2018-11-18 01:00:0015,398,51000,50,220,0S44,6S00
2018-11-18 00:00:0015,298,61000,90,422,3S53,1S00